Weather History for Morris, IL

Change the Weather History Date:

Thursday, May 23, 2013

  Actual Average (KLOT) Record (KLOT)
Temperature  
Mean Temperature 52 °F 63 °F  
Max Temperature 61 °F 73 °F 90 °F (2010)
Min Temperature 43 °F 52 °F 40 °F (1992)
Degree Days  
Heating Degree Days 12 5  
Month to date heating degree days 163  
Since 1 July heating degree days 6157  
Cooling Degree Days 0 2  
Month to date cooling degree days 31  
Year to date cooling degree days 36  
Growing Degree Days 2 (Base 50)    
Moisture  
Dew Point 50 °F    
Average Humidity 84    
Maximum Humidity 100    
Minimum Humidity 68    
Precipitation  
Precipitation 0.08 in 0.14 in 1.40 in (1995)
Month to date precipitation 3.16  
Year to date precipitation 13.60  
Sea Level Pressure  
Sea Level Pressure 30.02 in    
Wind  
Wind Speed 6 mph (NNE)    
Max Wind Speed 10 mph    
Max Gust Speed -    
Visibility 9 miles    
Events Rain    
T = Trace of Precipitation, MM = Missing Value Source: NWS Daily Summary

Daily Weather History Graph

Daily Weather History Graph

Search for Another Location

Airport:

Trip Planner

Search our weather history database for the weather conditions in past years. The results will help you decide how hot, cold, wet, or windy it might be!

Date:

Astronomy

May. 23, 2013 Rise Set
Actual Time 5:27 AM CDT 8:13 PM CDT
Civil Twilight 4:55 AM CDT 8:46 PM CDT
Nautical Twilight 4:14 AM CDT 9:27 PM CDT
Astronomical Twilight 3:28 AM CDT 10:13 PM CDT
Moon 6:45 PM CDT (5/23) 4:13 AM CDT (5/23)
Length of Visible Light 15h 50m
Length of Day
14h 46m
Waxing Gibbous, 97% of the Moon is Illuminated
May 23
Waxing Gibbous
May 24
Full
May 31
Last Quarter
Jun 8
New
Jun 16
First Quarter

Hourly Weather History & Observations

Time (CDT) Temp. Windchill Dew Point Humidity Pressure Visibility Wind Dir Wind Speed Gust Speed Precip Events Conditions
12:15 AM 61.9 °F - 57.0 °F 84% 29.77 in 10.0 mi WSW 5.8 mph - N/A   Overcast
12:35 AM 62.1 °F - 56.5 °F 82% 29.77 in 10.0 mi WSW 8.1 mph - N/A   Overcast
12:55 AM 61.7 °F - 57.2 °F 85% 29.77 in 10.0 mi WSW 5.8 mph - N/A   Overcast
1:15 AM 61.7 °F - 56.8 °F 84% 29.77 in 10.0 mi West 8.1 mph - N/A   Overcast
1:35 AM 61.5 °F - 56.7 °F 84% 29.77 in 10.0 mi West 8.1 mph - N/A   Overcast
1:55 AM 61.0 °F - 56.5 °F 85% 29.77 in 10.0 mi West 10.4 mph - N/A   Overcast
2:15 AM 60.8 °F - 56.8 °F 87% 29.77 in 10.0 mi West 9.2 mph - N/A   Overcast
2:35 AM 60.4 °F - 57.4 °F 90% 29.78 in 10.0 mi West 9.2 mph - N/A   Overcast
2:55 AM 60.3 °F - 57.7 °F 91% 29.78 in 10.0 mi West 10.4 mph - N/A   Overcast
3:15 AM 60.3 °F - 58.1 °F 93% 29.78 in 10.0 mi West 9.2 mph - N/A   Overcast
3:35 AM 59.9 °F - 58.1 °F 94% - 10.0 mi West 8.1 mph - N/A   Overcast
3:55 AM 60.1 °F - 58.1 °F 93% 29.78 in 10.0 mi West 9.2 mph - N/A   Overcast
4:15 AM 59.9 °F - 58.3 °F 94% 29.79 in 10.0 mi West 8.1 mph - N/A   Overcast
4:35 AM 59.9 °F - 58.3 °F 94% 29.80 in 10.0 mi West 8.1 mph - N/A   Overcast
4:55 AM 59.9 °F - 58.1 °F 94% 29.80 in 10.0 mi West 8.1 mph - N/A   Overcast
5:15 AM 59.5 °F - 58.1 °F 95% 29.81 in 10.0 mi West 10.4 mph - N/A   Overcast
5:35 AM 59.4 °F - 57.9 °F 95% 29.83 in 10.0 mi Calm Calm - N/A   Overcast
5:55 AM 55.8 °F - 54.5 °F 96% 29.84 in 10.0 mi NE 5.8 mph - N/A   Overcast
6:15 AM 54.9 °F - 54.0 °F 97% 29.85 in 5.0 mi NE 3.5 mph - N/A Rain Rain
6:35 AM 54.7 °F - 54.5 °F 99% 29.86 in 3.0 mi NNE 3.5 mph - 0.02 in Rain Heavy Rain
6:55 AM 54.7 °F - 54.7 °F 100% 29.87 in 3.0 mi Calm Calm - 0.02 in   Drizzle
7:15 AM 54.9 °F - 54.9 °F 100% 29.88 in 3.0 mi NNE 3.5 mph - 0.01 in Rain Light Rain
7:35 AM 54.9 °F - 54.9 °F 100% 29.89 in 4.0 mi NNE 6.9 mph - 0.01 in Rain Rain
7:55 AM 54.0 °F - 53.4 °F 98% 29.90 in 7.0 mi NNE 5.8 mph - 0.03 in Rain Light Rain
8:15 AM 54.0 °F - 53.1 °F 97% 29.92 in 10.0 mi NNE 5.8 mph - 0.01 in Rain Light Rain
8:35 AM 52.9 °F - 52.2 °F 97% 29.94 in 4.0 mi North 4.6 mph - 0.02 in Rain Rain
8:55 AM 52.7 °F - 52.2 °F 98% 29.95 in 7.0 mi NNE 6.9 mph - 0.03 in Rain Light Rain
9:15 AM 51.8 °F - 51.1 °F 97% 29.96 in 5.0 mi NE 4.6 mph - N/A Rain Light Rain
9:35 AM 52.0 °F - 51.4 °F 98% 29.97 in 4.0 mi NNE 6.9 mph - N/A   Light Drizzle
9:55 AM 52.0 °F - 50.9 °F 96% 29.98 in 7.0 mi NNE 8.1 mph - N/A   Light Drizzle
10:15 AM 52.5 °F - 50.2 °F 92% 29.99 in 10.0 mi NNE 9.2 mph - N/A   Overcast
10:35 AM 52.9 °F - 49.6 °F 89% 30.00 in 10.0 mi North 8.1 mph - N/A   Overcast
10:55 AM 52.7 °F - 50.0 °F 91% 30.00 in 10.0 mi NNE 6.9 mph - N/A   Overcast
11:15 AM 53.1 °F - 50.5 °F 91% 30.01 in 10.0 mi North 4.6 mph - N/A   Overcast
11:35 AM 53.6 °F - 50.9 °F 91% 30.02 in 10.0 mi NNE 3.5 mph - N/A   Overcast
11:55 AM 53.6 °F - 50.9 °F 91% 30.03 in 10.0 mi NNE 8.1 mph - N/A   Overcast
12:15 PM 54.1 °F - 50.5 °F 88% 30.04 in 10.0 mi NNE 6.9 mph - N/A   Overcast
12:35 PM 53.8 °F - 50.7 °F 89% 30.05 in 10.0 mi North 5.8 mph - N/A   Overcast
12:55 PM 54.5 °F - 50.5 °F 86% 30.05 in 10.0 mi NNE 5.8 mph - N/A   Overcast
1:15 PM 55.2 °F - 51.3 °F 87% 30.06 in 10.0 mi NNE 4.6 mph - N/A   Overcast
1:35 PM 55.0 °F - 50.7 °F 85% 30.06 in 10.0 mi NNE 6.9 mph - N/A   Overcast
1:55 PM 55.2 °F - 50.2 °F 83% 30.07 in 10.0 mi NNE 9.2 mph - N/A   Overcast
2:15 PM 55.9 °F - 49.6 °F 79% 30.08 in 10.0 mi North 4.6 mph - N/A   Overcast
2:35 PM 55.9 °F - 48.0 °F 75% 30.09 in 10.0 mi NE 5.8 mph - N/A   Overcast
2:55 PM 55.4 °F - 48.2 °F 77% 30.11 in 10.0 mi NNE 5.8 mph - N/A   Overcast
3:15 PM 55.9 °F - 48.2 °F 75% 30.12 in 10.0 mi North 5.8 mph - N/A   Overcast
3:35 PM 55.8 °F - 47.5 °F 74% 30.12 in 10.0 mi NNE 5.8 mph - N/A   Overcast
3:55 PM 56.7 °F - 47.8 °F 72% 30.13 in 10.0 mi NNE 6.9 mph - N/A   Overcast
4:15 PM 56.7 °F - 48.0 °F 73% 30.13 in 10.0 mi NE 6.9 mph - N/A   Overcast
4:35 PM 56.5 °F - 47.7 °F 72% 30.14 in 10.0 mi NNE 6.9 mph - N/A   Overcast
4:55 PM 55.8 °F - 46.9 °F 72% 30.14 in 10.0 mi North 5.8 mph - N/A   Overcast
5:15 PM 56.3 °F - 47.7 °F 73% 30.15 in 10.0 mi NNE 4.6 mph - N/A   Overcast
5:35 PM 55.4 °F - 47.3 °F 74% 30.16 in 10.0 mi North 3.5 mph - N/A   Overcast
5:55 PM 55.4 °F - 46.4 °F 72% 30.17 in 10.0 mi NNE 5.8 mph - N/A   Overcast
6:15 PM 55.4 °F - 46.4 °F 72% 30.18 in 10.0 mi NNE 5.8 mph - N/A   Mostly Cloudy
6:35 PM 55.6 °F - 46.2 °F 71% 30.18 in 10.0 mi NNE 3.5 mph - N/A   Clear
6:55 PM 55.0 °F - 44.8 °F 68% 30.19 in 10.0 mi NNE 3.5 mph - N/A   Clear
7:15 PM 55.2 °F - 44.8 °F 68% 30.19 in 10.0 mi NNE 3.5 mph - N/A   Clear
7:35 PM 54.5 °F - 44.8 °F 70% 30.20 in 10.0 mi NNE 3.5 mph - N/A   Clear
7:55 PM 53.2 °F - 44.8 °F 73% 30.21 in 10.0 mi ENE 6.9 mph - N/A   Clear
8:15 PM 50.9 °F - 42.8 °F 74% 30.21 in 10.0 mi ENE 4.6 mph - N/A   Clear
8:35 PM 50.0 °F - 42.1 °F 74% 30.22 in 10.0 mi ENE 6.9 mph - N/A   Clear
8:55 PM 48.9 °F - 41.2 °F 75% 30.23 in 10.0 mi ENE 9.2 mph - N/A   Clear
9:15 PM 47.3 °F - 39.0 °F 73% 30.24 in 10.0 mi ENE 6.9 mph - N/A   Clear
9:35 PM 46.4 °F 44.3 °F 38.3 °F 73% 30.25 in 10.0 mi NE 4.6 mph - N/A   Clear
9:55 PM 45.5 °F 44.2 °F 37.8 °F 74% 30.26 in 10.0 mi NE 3.5 mph - N/A   Clear
10:15 PM 45.1 °F 42.8 °F 37.6 °F 75% 30.26 in 10.0 mi NE 4.6 mph - N/A   Clear
10:35 PM 45.1 °F 43.7 °F 36.5 °F 72% 30.27 in 10.0 mi NE 3.5 mph - N/A   Clear
10:55 PM 44.4 °F 42.9 °F 36.5 °F 74% 30.27 in 10.0 mi NE 3.5 mph - N/A   Clear
11:15 PM 43.7 °F 42.1 °F 36.9 °F 77% 30.27 in 10.0 mi NE 3.5 mph - N/A   Clear
11:35 PM 43.2 °F - 36.9 °F 78% 30.28 in 10.0 mi Calm Calm - N/A   Clear
11:55 PM 43.0 °F 41.3 °F 36.5 °F 78% 30.28 in 10.0 mi NE 3.5 mph - N/A   Clear